Theta_e
285 280 275 276 277 281 281 281 279 282 280 278 277 276 276 276 277 278 279 283 281 280 278 278 280 279 281 280 280 280 280 279 278 278 278 279 279 278 278 278 278 278 279 281 281 281 280 281 280 281 280 281 281 281 280 280 280 281 282 282 282 283 282 283 282 282 282 282 282 282 282 282 282 283 285 286 286 286 286 287 286 286 285 285 285 287
284 280 278 280 281 282 283 282 279 279 277 277 276 274 275 275 276 279 279 281 281 279 279 281 278 279 279 278 278 280 279 278 278 278 278 278 278 277 277 277 278 278 280 280 279 280 279 280 281 281 281 282 280 280 280 279 280 281 281 282 282 282 282 282 282 282 283 283 283 283 282 282 282 282 282 283 284 285 286 287 286 286 285 285 285 287
279 276 281 282 281 281 279 279 279 278 279 275 276 274 271 276 278 280 279 281 282 281 279 279 277 279 277 277 278 278 278 278 279 279 278 278 277 277 277 277 277 278 278 279 279 280 281 281 280 280 280 280 280 279 279 279 280 281 281 281 282 281 281 281 283 284 284 283 284 284 284 284 282 283 284 284 285 285 285 285 285 286 285 285 285 286
276 278 283 282 278 278 278 278 278 278 277 275 275 273 273 276 275 274 279 279 281 279 279 279 276 277 277 278 278 279 279 278 279 279 278 278 277 277 277 277 277 277 278 279 279 279 280 279 279 279 280 280 280 279 279 280 281 282 282 281 281 281 281 282 283 286 284 284 285 284 284 284 284 283 286 285 285 285 285 285 285 285 285 285 285 286
278 281 282 279 279 279 279 276 277 275 275 276 277 274 273 276 277 276 277 280 280 278 279 277 275 274 275 275 276 278 279 278 277 277 277 277 277 277 277 278 279 278 279 278 278 278 278 278 278 279 280 280 279 279 279 280 280 281 281 281 280 281 282 282 284 283 284 284 283 283 283 283 282 281 280 279 281 282 284 285 283 284 285 285 285 285
279 282 285 280 278 277 277 276 278 278 274 275 274 277 277 277 277 277 278 277 275 273 278 277 268 268 274 274 274 276 276 276 276 276 275 276 277 277 277 277 278 279 279 278 277 277 278 278 278 279 279 279 278 278 279 280 280 280 280 280 280 281 281 282 283 283 284 284 282 281 280 280 279 280 280 280 280 281 282 282 284 284 284 284 285 285
280 282 282 280 277 277 276 276 277 278 274 271 275 277 277 277 277 277 276 276 270 268 275 277 269 264 273 273 274 274 274 274 274 275 276 276 276 277 276 277 277 277 277 277 278 278 277 278 278 278 278 278 278 279 279 279 280 280 280 280 281 281 282 283 283 283 284 283 282 281 281 281 280 280 281 282 282 282 282 282 282 283 283 284 284 285
282 281 279 278 277 276 276 275 277 278 274 273 277 277 277 276 276 276 276 276 273 277 278 276 274 267 266 272 274 274 273 273 274 275 275 275 275 275 276 276 277 278 278 277 277 277 278 277 277 276 277 277 278 278 279 279 279 280 279 280 282 282 283 282 282 282 283 283 282 282 282 282 281 281 281 282 282 283 284 283 283 283 283 283 284 284
280 280 280 280 276 276 276 278 279 278 275 277 278 278 277 277 276 277 275 274 274 273 268 272 275 269 267 272 274 274 273 272 272 272 273 274 274 275 276 277 277 277 277 277 276 276 276 276 276 277 276 277 278 278 278 279 279 279 279 281 282 282 282 282 282 283 282 283 283 282 281 280 280 281 281 281 282 282 282 282 282 282 283 283 283 283
282 281 281 281 277 277 279 278 277 278 276 276 278 278 278 278 277 277 273 273 270 269 260 269 273 266 267 272 273 275 273 272 272 272 273 274 274 275 275 276 276 276 276 276 276 276 276 276 276 276 277 277 277 278 279 279 279 279 280 281 281 281 281 281 281 281 281 281 282 280 279 279 280 280 280 279 279 279 280 281 282 283 282 283 283 283
281 285 283 282 281 281 279 279 278 278 279 279 278 277 277 275 274 273 272 271 264 262 264 271 273 271 263 271 272 272 272 271 271 271 272 273 273 274 274 274 274 274 275 275 275 275 275 275 275 276 276 276 277 278 278 279 279 279 280 280 280 280 281 281 281 281 280 280 280 279 279 278 277 277 277 276 277 278 278 279 280 281 282 282 282 283
279 281 284 283 285 284 280 280 279 278 278 278 275 273 276 273 272 270 268 265 261 261 265 272 271 271 260 266 272 274 271 270 270 268 270 271 272 273 273 274 274 274 274 274 274 274 274 274 275 275 275 276 277 277 278 278 278 279 280 279 279 279 280 281 281 281 280 280 279 279 278 277 277 276 276 275 275 276 277 278 279 280 281 281 282 282
276 280 279 282 285 282 279 278 278 277 277 277 275 274 270 266 265 264 267 264 262 264 269 271 272 267 267 269 273 273 272 271 271 271 271 271 272 272 273 273 274 274 274 273 273 273 273 273 273 274 275 275 276 276 276 277 278 278 278 278 278 278 279 280 281 280 280 280 279 279 277 276 277 276 276 275 275 275 275 277 277 278 278 279 279 279
275 277 280 280 281 283 281 275 276 275 275 275 274 268 265 260 259 260 261 259 260 269 270 272 271 267 270 272 275 273 272 273 272 272 272 273 272 272 273 273 273 273 273 273 273 273 273 273 273 274 274 275 275 275 275 276 276 277 277 278 277 277 279 280 280 280 279 279 279 278 277 276 276 275 276 275 275 275 275 276 276 277 277 276 276 276
266 269 275 278 277 281 280 278 277 276 276 274 274 272 265 265 260 261 256 259 264 266 270 271 264 255 262 269 274 274 274 273 273 273 273 273 273 273 273 272 272 272 272 272 272 273 273 273 273 274 274 274 274 274 274 275 275 275 275 275 275 276 278 278 277 277 277 277 278 279 278 276 276 276 275 274 276 275 274 275 275 275 276 275 275 275
274 272 278 280 281 281 279 280 279 279 275 276 275 274 267 267 269 263 263 261 264 265 264 261 264 265 269 274 274 273 273 272 273 272 273 272 272 272 271 271 271 271 272 272 272 272 273 273 273 274 274 273 273 273 274 274 274 274 274 274 274 275 275 276 276 276 276 277 278 279 277 276 277 278 277 276 276 275 274 274 274 274 274 275 274 274
273 271 277 282 280 279 280 279 279 278 268 273 274 268 271 275 273 264 268 269 266 262 264 264 267 272 273 272 272 272 272 272 272 272 271 271 271 271 271 271 271 271 271 272 272 272 272 273 274 274 273 273 273 273 273 273 274 273 273 274 274 274 274 274 275 276 277 277 278 278 277 277 276 276 275 275 274 274 274 274 274 274 274 274 274 274
266 273 280 278 278 279 281 279 280 279 279 272 265 273 278 277 275 266 262 261 261 260 264 266 265 266 266 264 271 271 270 271 271 270 270 271 271 270 270 270 271 271 271 272 272 272 272 273 273 273 273 273 273 273 273 273 274 274 274 274 273 273 272 273 274 275 276 276 277 277 277 277 277 276 276 275 274 274 273 273 273 273 272 272 273 273
275 270 274 275 278 279 280 278 278 279 279 278 275 277 271 262 264 267 263 262 261 261 263 267 268 267 266 267 269 269 269 269 269 270 270 269 270 269 270 270 271 271 271 271 271 272 272 273 272 273 273 273 273 274 273 273 274 274 273 273 273 272 273 273 275 275 275 275 275 277 277 277 276 276 275 275 274 272 271 271 271 271 271 271 272 273
276 267 273 277 276 278 278 275 270 272 276 278 278 276 275 273 267 266 266 269 267 264 263 264 267 264 270 268 269 268 270 269 269 269 269 269 269 270 269 270 270 270 271 271 271 272 272 272 272 272 272 272 273 273 273 273 273 273 273 273 272 273 273 273 274 273 273 273 273 274 274 274 275 275 275 274 272 271 270 270 270 270 271 271 272 272
272 275 266 274 278 277 272 274 272 273 268 270 270 268 271 268 274 272 266 263 263 262 263 263 262 265 270 272 270 270 270 269 269 268 269 269 270 270 270 270 270 270 271 271 271 272 272 272 272 272 273 273 273 273 274 273 272 272 272 271 272 271 272 272 272 272 272 272 272 272 271 272 273 273 273 271 271 270 270 270 271 270 271 271 272 273
267 271 266 273 273 272 275 277 276 276 275 275 273 271 271 268 267 263 264 268 260 261 263 261 261 268 271 273 271 271 271 270 270 269 269 269 269 270 270 271 271 270 271 271 271 272 272 272 272 272 273 273 273 273 272 272 272 271 271 271 271 271 271 271 271 271 271 271 271 270 271 271 271 271 271 270 270 269 269 269 270 270 271 271 272 273
274 273 271 268 272 273 276 277 277 277 276 276 275 272 271 269 268 266 262 266 269 267 263 266 263 265 272 273 272 271 271 270 271 270 269 269 269 270 271 271 271 271 271 271 271 272 272 272 272 272 272 272 272 272 272 272 271 270 270 270 270 269 270 271 270 270 270 269 270 270 269 269 269 269 270 269 269 268 269 269 270 271 271 272 273 274
281 264 265 273 275 276 278 275 276 274 276 275 274 274 271 267 268 267 268 270 267 267 265 266 263 267 272 275 274 272 271 271 271 270 269 269 270 270 270 270 271 271 271 272 272 272 272 271 272 272 272 272 272 272 271 271 270 270 269 269 269 268 269 269 269 268 269 269 269 269 268 268 269 269 268 267 267 267 268 270 271 272 272 273 274 274
268 268 271 267 267 272 274 274 275 276 276 273 271 273 271 269 268 269 268 264 263 267 268 265 259 265 273 275 275 275 271 270 270 270 270 269 270 270 270 271 271 271 271 271 271 271 271 271 271 271 272 272 272 271 271 270 270 269 268 268 268 268 268 268 268 268 268 268 267 267 267 267 267 266 266 266 266 267 268 270 270 270 270 271 272 273
273 273 268 261 263 262 262 263 266 269 271 274 274 273 271 267 268 265 262 262 262 266 267 264 264 270 274 274 273 273 271 270 271 271 271 271 270 270 270 271 271 271 271 271 271 271 271 271 272 272 272 272 271 271 270 269 269 268 268 267 267 267 267 267 267 268 267 267 266 267 266 266 266 266 265 266 266 267 267 268 269 269 270 271 272 273
266 271 270 268 264 266 269 271 275 275 272 268 271 272 270 268 266 266 264 263 264 266 261 265 267 267 268 270 271 271 270 269 269 270 270 270 270 271 271 271 271 271 271 271 271 271 271 271 271 272 272 272 271 270 269 269 268 267 267 267 267 267 266 267 267 267 266 266 266 265 265 265 265 265 265 266 266 266 267 267 268 269 270 271 271 272
263 266 268 270 270 272 273 273 274 274 270 272 270 269 271 270 266 263 262 265 269 264 261 268 268 265 266 269 270 269 269 270 270 270 270 271 270 270 270 270 273 271 271 271 271 271 271 271 271 271 271 271 270 270 269 268 267 267 266 266 266 266 266 266 266 266 266 266 265 265 264 265 265 265 265 266 266 266 267 267 268 269 270 270 269 270
264 264 265 266 267 271 273 273 274 273 272 272 271 270 269 269 266 263 261 267 267 262 262 266 267 266 267 269 269 269 270 270 270 270 271 271 271 270 270 270 270 270 270 270 270 271 271 270 271 271 270 270 269 268 268 267 267 267 266 266 266 266 266 266 266 265 265 265 264 264 264 265 265 265 265 266 266 267 267 268 269 269 269 268 268 269
268 263 262 263 270 272 272 273 273 271 271 271 270 271 271 269 266 265 265 268 267 266 268 268 268 267 269 269 269 270 272 271 271 271 271 270 270 270 270 269 269 270 270 270 270 270 271 271 270 270 270 269 268 267 267 266 266 266 265 265 265 265 265 265 265 264 264 264 264 264 264 265 265 265 265 265 265 266 266 267 268 268 268 267 267 268
270 267 272 265 266 269 272 271 269 270 270 269 271 270 270 268 267 267 266 268 269 268 269 268 267 266 270 271 271 272 272 272 271 270 269 270 270 269 269 269 270 269 270 270 270 270 270 270 270 270 269 268 267 267 266 266 265 265 265 265 264 265 265 265 264 264 263 263 263 264 264 265 265 265 265 265 265 265 266 267 267 267 267 266 266 266
267 266 265 262 265 268 271 271 272 272 270 267 267 269 267 264 261 264 263 269 268 266 267 267 265 265 269 271 272 271 271 270 269 269 269 269 270 270 269 269 269 270 270 270 269 269 270 270 270 269 269 268 267 266 265 265 264 264 264 264 264 264 265 264 263 263 263 263 264 264 264 264 265 265 265 265 265 265 266 266 266 266 266 266 266 266
265 264 265 261 266 267 272 273 270 268 268 264 262 266 267 269 270 271 271 271 270 270 266 263 264 269 270 271 269 269 269 269 269 269 269 269 270 270 269 269 270 270 270 270 270 270 270 269 269 269 268 267 266 266 265 265 264 263 263 263 264 264 264 263 263 263 263 263 264 264 264 264 264 264 264 265 265 266 266 266 265 265 265 265 266 266
264 265 264 265 262 267 272 269 269 267 262 263 269 271 270 269 269 267 268 269 271 271 269 269 269 270 270 269 268 268 268 268 269 270 271 270 269 269 269 270 270 270 270 270 270 270 269 269 269 269 268 267 266 266 266 265 264 263 264 264 264 264 263 263 263 263 263 263 264 264 264 264 264 264 264 265 265 265 265 265 264 265 265 266 266 266
265 264 264 259 262 262 264 266 265 260 262 270 271 272 271 271 271 270 271 271 271 271 270 269 269 269 269 270 269 269 270 270 271 270 271 272 271 270 270 270 270 270 269 269 269 269 269 268 268 268 267 266 266 265 265 264 264 264 263 263 263 263 263 263 263 263 263 263 263 264 264 264 264 264 264 264 265 264 264 264 264 265 265 265 266 266
264 265 263 264 261 263 265 263 257 260 271 271 271 273 275 275 274 271 269 271 272 270 270 268 269 269 269 269 270 270 270 271 271 271 271 272 271 270 270 269 270 269 268 268 268 268 267 267 267 266 265 266 265 265 265 264 264 263 263 263 263 263 263 263 263 263 263 263 263 263 264 264 264 264 264 264 264 264 264 264 264 264 265 265 266 266
271 265 262 264 262 262 265 265 265 272 272 270 267 270 272 269 269 268 263 267 271 270 269 268 269 269 269 270 270 271 271 270 268 269 271 271 271 272 271 270 270 269 268 268 267 267 267 267 266 265 265 264 264 265 263 263 263 263 262 262 263 263 263 263 262 262 263 263 263 263 264 264 263 263 263 263 263 263 263 264 264 264 265 265 265 266
272 268 267 266 263 261 263 263 263 264 261 264 271 273 275 274 273 272 268 265 270 270 271 269 268 269 269 270 270 270 270 267 264 265 270 271 271 271 271 270 269 268 266 266 266 267 266 265 265 265 264 263 264 264 263 263 263 262 262 262 262 262 262 262 262 262 262 262 263 263 263 263 263 263 263 263 263 263 264 264 264 265 265 265 265 265
270 270 265 263 263 263 261 260 264 262 267 270 270 273 274 275 273 273 267 262 270 271 270 270 269 269 269 269 269 269 266 262 262 265 269 270 270 270 268 268 267 265 265 265 265 264 264 264 264 264 263 263 263 263 263 262 262 262 261 261 261 262 261 261 262 262 262 262 263 263 263 263 263 263 263 263 263 263 263 264 264 265 266 266 266 266
265 260 262 264 262 262 260 258 257 256 258 269 272 273 274 274 273 269 256 257 269 270 270 270 269 269 269 270 269 268 265 260 261 265 269 269 269 268 267 265 264 264 265 265 264 264 264 263 263 262 262 263 261 263 262 262 262 261 261 261 261 261 261 261 262 263 263 263 263 263 263 263 263 263 263 263 263 264 264 264 265 265 265 266 266 266
257 261 259 263 260 268 266 263 265 262 269 271 272 274 274 275 272 260 255 263 270 270 271 271 270 270 270 269 268 264 266 267 268 269 269 269 267 266 267 265 264 264 263 262 263 263 263 262 263 262 263 262 262 261 262 262 261 260 261 261 261 260 261 262 263 263 263 263 263 263 263 263 263 263 263 264 264 264 264 265 265 265 266 266 267 268
262 261 262 262 262 259 263 264 265 271 272 273 274 274 274 269 258 258 267 272 271 270 271 271 270 270 269 268 267 266 267 268 269 268 267 266 265 265 265 263 264 264 263 263 262 262 262 262 262 262 262 262 261 261 262 261 260 260 260 260 260 260 262 262 262 262 262 262 262 262 262 263 263 263 263 264 264 264 264 265 265 266 266 266 266 267
266 262 262 264 263 267 265 265 261 257 268 274 273 272 273 264 265 270 271 272 272 271 271 271 270 269 268 266 267 266 266 267 266 265 265 265 263 263 263 263 263 261 261 260 260 262 261 260 260 260 260 261 261 261 261 261 260 260 260 259 260 261 262 262 262 262 262 262 262 262 262 262 263 263 263 263 264 264 264 265 265 265 266 266 266 266
266 264 261 261 265 266 264 259 260 271 273 275 273 267 270 271 273 272 271 269 272 272 270 269 269 268 267 266 265 265 265 265 264 265 263 262 262 263 263 263 262 260 260 260 261 260 259 259 259 259 260 260 261 261 261 260 259 259 259 259 261 262 262 262 262 261 261 261 261 261 262 262 262 263 263 263 264 264 264 264 264 265 265 265 265 265
271 268 267 266 261 262 265 268 273 274 274 275 274 273 273 273 274 273 272 271 270 270 271 268 267 267 267 266 265 264 263 263 263 263 261 261 262 262 261 261 260 259 259 260 260 259 259 258 258 258 259 260 260 261 261 261 259 259 259 260 261 261 261 261 261 260 260 260 260 261 261 262 262 262 263 263 264 263 263 264 264 264 265 265 265 265
273 272 271 269 266 271 275 275 275 274 274 274 274 274 273 273 273 273 272 270 270 270 269 267 267 266 266 265 263 262 262 262 261 261 261 261 261 261 261 260 259 259 260 260 258 258 258 258 258 258 258 259 260 260 260 260 260 258 259 261 261 261 261 260 260 259 259 259 260 260 261 260 260 261 263 263 264 264 264 264 264 264 264 265 265 266
271 270 270 267 272 269 264 272 273 272 273 273 273 274 274 274 273 273 271 270 270 269 268 267 266 265 265 263 262 261 261 261 261 260 260 260 260 259 259 258 258 259 259 257 258 258 257 257 257 257 258 257 259 259 260 260 260 260 260 260 261 261 261 260 259 259 259 259 259 260 260 260 261 262 262 263 263 264 264 264 264 264 264 265 265 266
269 274 271 271 270 267 267 271 273 273 273 273 273 272 271 272 273 272 271 270 269 269 267 266 265 264 263 261 262 261 260 260 260 259 259 259 258 257 257 257 257 257 258 257 257 257 257 257 256 257 257 257 258 259 259 260 260 260 260 261 261 261 260 259 259 259 258 259 259 259 260 260 262 262 262 263 263 264 264 264 264 264 265 265 266 266
272 272 265 270 268 271 273 273 273 273 273 273 273 273 273 272 271 270 269 269 268 266 265 265 264 263 262 261 262 261 259 259 260 259 258 257 257 257 257 257 256 257 257 256 256 257 256 256 256 256 257 257 258 259 259 259 260 260 260 261 261 260 259 259 259 259 258 259 259 259 260 261 261 261 262 263 264 265 265 264 265 266 267 268 268 269
271 268 271 269 266 266 267 270 271 265 265 270 271 272 272 272 270 269 268 267 266 264 263 262 262 263 262 262 262 260 258 258 259 258 256 256 256 256 256 256 256 256 256 256 256 256 256 256 256 256 257 257 258 259 259 259 259 260 260 260 260 260 259 259 259 259 258 259 259 259 260 261 261 261 262 263 263 264 265 268 271 270 269 268 273 276
271 271 270 266 264 265 271 272 272 271 270 271 271 272 272 271 269 267 266 265 264 264 263 262 260 260 260 261 262 259 258 258 257 257 256 255 255 256 256 255 255 255 255 256 255 255 255 256 256 256 256 257 258 258 258 258 259 259 260 260 260 260 259 259 259 259 259 259 259 260 261 261 261 262 262 263 264 264 264 265 267 271 273 274 275 276
Wind_Speed
1 9 6 1 4 6 5 2 1 1 2 3 1 0 7 6 5 5 6 9 6 7 4 3 10 6 12 6 10 6 10 10 10 10 9 8 9 7 6 5 4 5 4 3 3 4 6 6 5 6 6 9 8 8 5 4 4 6 8 8 9 7 6 6 7 6 6 7 7 6 7 7 5 5 5 5 6 7 7 7 7 6 6 5 4 4
7 9 6 4 3 4 4 1 1 2 2 4 4 2 7 6 11 7 8 6 2 6 15 11 5 9 6 8 7 9 12 10 12 11 10 10 7 5 6 6 6 2 3 4 6 7 6 5 7 8 9 10 12 10 6 6 7 8 8 8 10 9 7 6 6 6 6 5 6 7 7 7 7 7 6 6 6 7 7 8 7 7 6 6 6 5
7 5 3 4 2 1 4 4 2 5 4 4 2 3 3 8 9 10 6 1 2 8 13 6 5 8 8 8 8 10 10 8 8 10 9 9 7 6 6 6 6 5 7 6 6 6 7 6 9 9 10 10 8 7 5 6 7 8 7 7 7 7 6 6 6 6 6 6 7 7 7 7 7 5 6 6 6 7 7 7 7 8 8 7 7 6
5 2 3 1 3 4 4 6 6 6 4 3 6 4 5 5 6 14 8 3 5 2 10 10 8 2 6 10 11 9 11 9 9 10 9 8 9 8 6 5 7 6 8 10 10 11 10 10 10 11 12 12 9 7 8 10 12 11 9 7 8 6 5 6 7 7 6 7 8 7 7 7 6 6 6 6 6 6 7 8 8 6 7 8 8 8
2 2 0 4 6 6 2 3 4 4 5 5 2 2 5 8 8 5 13 14 6 5 2 6 5 3 2 6 9 7 8 11 6 9 8 7 6 4 4 9 10 9 10 10 11 12 12 13 13 13 13 11 10 10 11 11 11 9 9 8 7 5 5 6 7 8 7 8 7 7 8 6 6 4 4 4 5 6 6 6 5 7 6 7 9 9
3 2 1 3 6 7 3 3 0 0 6 6 3 1 5 8 11 12 13 9 7 7 1 6 6 2 3 5 8 4 6 8 4 9 7 6 7 9 12 11 8 6 5 8 10 11 11 12 13 13 12 9 10 12 11 10 10 10 10 8 5 5 6 7 7 8 7 7 7 7 7 8 7 7 7 7 8 9 9 9 7 6 7 8 8 9
1 2 5 1 3 4 4 0 2 1 2 2 4 1 4 7 8 11 14 5 5 2 5 3 2 6 1 5 4 4 7 6 4 9 7 8 8 9 9 9 9 9 8 8 9 11 13 13 14 12 10 11 13 13 12 10 9 11 10 5 5 7 7 7 7 8 7 7 6 6 6 6 6 8 8 7 7 8 8 7 7 7 7 6 8 9
2 3 5 5 4 4 5 5 1 1 0 4 2 2 5 8 12 12 10 1 6 2 3 2 1 3 4 1 3 4 6 4 6 8 9 8 8 8 8 8 9 10 10 10 12 13 12 11 11 13 13 14 16 15 13 10 8 10 8 4 7 8 9 8 7 7 7 6 6 6 6 6 7 7 9 10 9 9 8 9 9 8 7 7 6 8
1 5 2 3 2 3 3 3 5 1 2 6 4 3 7 8 9 10 7 6 5 1 4 5 5 2 1 1 2 5 6 3 4 5 7 9 8 9 10 10 9 9 10 11 12 13 11 11 13 14 15 16 16 15 13 10 10 8 4 7 9 10 9 9 8 8 6 6 5 4 5 6 5 6 6 7 7 8 8 9 9 8 8 8 7 7
2 1 3 2 2 3 4 5 1 2 3 5 5 4 4 7 3 8 3 3 4 1 4 2 3 1 8 3 6 4 3 2 2 5 6 8 9 9 9 9 10 9 9 11 12 11 11 12 13 14 14 15 15 14 13 12 11 7 6 10 11 10 9 9 9 9 8 6 4 4 5 6 7 6 6 5 7 7 7 8 10 9 9 8 8 7
5 4 5 3 0 1 2 5 3 3 3 5 2 7 10 4 3 3 1 0 2 1 5 3 1 5 6 3 3 0 4 3 2 4 6 8 9 10 9 9 10 11 11 12 11 10 11 10 12 14 16 16 16 14 15 14 12 8 9 12 11 11 11 11 10 11 10 6 4 6 5 5 6 6 5 5 6 6 6 9 10 9 8 8 9 9
9 1 0 1 1 2 1 5 1 1 2 2 3 3 13 7 2 1 2 4 1 8 5 1 2 6 6 3 2 5 6 4 5 4 5 6 7 8 8 8 9 10 11 12 12 11 12 14 16 16 17 17 17 17 19 18 16 14 15 15 16 16 16 14 11 11 12 9 7 7 6 5 5 5 4 5 6 5 6 8 9 9 9 9 8 8
5 2 2 5 2 5 4 3 6 4 6 7 4 8 11 9 7 7 5 10 7 10 5 2 4 6 5 3 6 9 7 4 4 5 4 5 5 5 6 7 8 10 12 11 13 16 16 15 15 15 14 15 15 18 19 19 17 15 15 16 16 17 17 16 11 11 14 13 12 8 7 6 6 5 4 5 5 4 4 5 8 10 9 8 9 9
7 5 4 6 3 1 4 7 10 9 5 7 6 3 6 5 4 9 5 3 5 7 3 4 3 6 3 2 2 9 5 6 4 4 3 5 5 9 10 10 10 9 10 14 14 14 13 13 14 12 12 13 15 18 19 18 18 17 17 18 18 18 16 14 12 14 15 16 15 10 9 7 6 5 5 5 5 5 4 5 6 7 8 8 9 10
6 8 3 4 2 4 3 1 3 6 5 4 3 1 3 1 2 12 1 8 13 15 8 2 3 5 3 3 7 6 4 6 4 3 3 4 3 4 4 5 10 15 11 12 12 12 12 14 14 10 11 13 15 17 17 15 16 17 17 17 20 19 16 17 18 15 17 16 15 13 11 9 6 5 5 5 5 5 5 5 6 6 6 7 8 9
3 6 8 2 4 2 4 2 1 2 5 1 1 3 5 7 3 6 7 5 9 12 8 2 4 4 2 8 7 4 4 4 2 1 0 3 5 9 9 11 11 11 11 12 12 12 13 14 12 7 11 13 14 15 15 15 14 14 15 16 17 17 17 16 17 17 17 16 15 16 14 8 6 5 5 5 5 6 6 6 6 6 6 7 8 10
4 6 1 12 3 0 4 2 3 3 2 4 4 5 7 2 5 5 6 4 4 4 9 4 6 1 4 1 3 3 1 4 10 13 12 10 9 9 11 13 12 12 12 13 12 12 15 15 8 9 12 13 14 13 13 14 13 13 15 16 17 18 16 16 17 17 16 17 17 15 11 7 6 7 8 7 8 8 7 5 4 5 7 9 10 11
1 14 11 2 5 3 0 3 1 1 0 3 3 7 7 3 5 4 7 2 2 6 9 6 6 5 2 6 1 7 10 10 10 7 7 7 10 14 11 11 11 11 12 11 11 12 13 12 6 11 12 13 13 13 13 14 12 12 13 14 17 18 20 19 17 16 14 14 14 11 9 7 7 8 9 10 10 7 4 5 6 7 9 11 10 11
2 10 4 2 4 8 6 2 5 1 1 4 5 1 4 6 8 4 1 11 9 8 10 7 6 7 6 8 5 9 10 9 9 9 8 10 11 10 10 10 10 9 10 10 10 11 13 9 8 13 14 13 12 12 12 12 11 11 12 13 15 18 20 19 14 14 13 14 13 10 10 10 11 11 11 11 6 4 8 10 10 11 12 12 12 12
1 2 7 1 3 7 5 4 7 5 4 1 3 5 1 0 7 9 5 9 6 13 10 17 10 10 4 2 2 3 3 5 6 7 7 8 9 10 9 10 11 11 10 10 10 11 12 9 11 14 13 13 13 12 11 11 10 13 13 15 16 18 17 17 17 15 14 14 14 15 15 16 14 13 12 7 6 9 9 11 11 13 13 13 12 11
2 1 7 5 5 7 7 1 5 4 4 6 6 4 5 2 4 4 1 3 4 5 5 10 15 1 2 3 3 2 3 4 3 5 5 6 8 9 9 10 11 11 11 10 11 12 11 10 12 13 12 11 12 11 10 9 10 11 12 14 16 20 19 17 15 14 14 13 14 15 18 18 18 14 7 9 11 11 10 11 13 12 12 11 11 11
1 2 6 11 10 5 8 4 4 4 2 3 4 8 5 9 9 6 11 1 2 1 9 7 13 12 3 4 4 1 4 4 3 5 7 8 9 10 11 11 12 12 12 12 11 11 10 11 13 12 11 10 11 10 10 10 10 12 13 14 15 14 16 15 14 15 15 12 15 18 17 14 11 12 14 14 11 11 11 12 12 12 12 11 11 11
2 3 2 9 7 12 13 7 1 1 2 2 2 5 2 2 1 5 12 11 9 7 3 8 13 7 5 6 4 2 1 2 6 7 11 10 10 12 13 13 13 12 12 13 13 11 10 11 12 12 12 13 11 10 10 10 11 12 13 15 17 21 22 18 16 14 15 17 15 14 13 13 14 15 14 11 10 11 12 12 12 11 11 11 10 11
4 1 6 11 10 6 8 3 1 3 1 9 1 2 4 6 5 5 7 12 12 13 11 9 10 6 4 4 5 3 2 3 4 5 9 10 10 11 13 14 15 14 13 13 11 10 9 11 11 11 11 12 10 9 10 10 10 11 12 15 20 21 19 17 17 18 17 13 14 15 15 16 14 11 10 12 11 15 16 14 11 9 10 11 11 12
3 3 1 9 8 12 11 2 3 2 2 4 7 6 1 3 5 7 6 1 3 6 14 11 16 11 2 2 12 18 5 6 7 9 9 13 12 13 13 12 13 15 14 13 13 12 11 12 12 11 12 12 11 10 9 11 11 13 15 15 20 21 19 18 18 17 13 14 16 17 16 13 11 12 13 13 13 15 16 13 13 12 13 12 12 12
0 4 2 4 10 15 17 17 17 18 13 9 4 7 5 3 10 8 7 2 4 4 6 6 14 15 14 15 19 17 11 9 9 11 11 10 13 14 14 15 15 15 14 14 13 13 14 13 12 12 12 11 11 10 9 11 12 14 15 16 17 17 19 18 17 14 14 14 16 14 12 12 13 13 13 13 13 16 15 14 13 13 12 11 10 11
1 1 2 5 5 9 11 12 12 10 13 11 18 13 13 6 5 3 3 3 11 11 6 9 13 17 19 23 21 17 14 17 19 16 15 14 14 14 13 14 15 15 15 15 12 13 14 15 14 12 13 11 8 9 10 12 14 12 17 20 19 19 16 17 16 15 15 15 13 12 13 14 14 13 12 12 13 13 14 14 13 13 12 8 10 11
1 2 7 8 9 13 12 14 17 12 14 17 15 14 13 12 6 2 2 11 8 13 18 8 17 21 24 23 18 13 12 14 16 17 15 14 15 15 15 15 18 16 15 13 13 14 16 16 14 15 13 11 7 10 10 9 11 17 16 18 20 16 16 15 16 16 16 15 15 14 15 15 15 14 13 13 13 14 13 13 13 11 9 10 11 12
1 2 7 3 10 8 14 16 16 12 8 11 13 14 12 10 4 4 6 7 12 6 16 24 23 23 23 20 14 12 14 15 17 18 17 16 15 16 17 18 17 16 15 15 15 16 16 17 16 16 13 11 8 11 10 9 10 11 12 17 16 17 17 16 16 17 16 15 14 14 15 14 12 11 12 13 14 14 14 14 11 10 10 10 11 10
0 4 5 5 12 15 14 14 12 10 12 14 13 13 12 9 7 2 5 9 9 11 17 21 24 25 20 13 14 16 17 17 16 15 15 16 18 18 18 18 17 17 16 16 17 16 14 15 15 15 12 8 9 10 10 11 13 15 18 16 16 17 15 15 16 16 15 15 15 14 14 13 12 11 10 11 13 14 14 14 13 10 9 10 11 11
2 6 6 5 5 14 13 8 4 7 10 15 18 13 7 8 8 8 6 11 12 14 17 21 22 20 9 11 15 16 16 15 17 18 18 17 17 19 20 20 20 19 19 19 17 16 16 15 15 14 9 8 10 12 13 12 12 13 14 16 17 15 15 15 15 14 14 15 14 14 13 11 12 12 12 11 11 12 13 14 10 9 9 11 11 11
4 6 2 2 8 14 5 8 14 14 16 12 7 10 10 3 2 4 6 10 14 21 23 22 18 14 9 13 16 16 17 17 20 19 17 18 20 20 20 21 21 23 21 20 17 15 16 18 18 13 10 10 13 14 14 14 14 13 18 18 15 14 15 14 14 14 14 12 13 14 13 13 14 13 13 12 13 13 13 12 10 10 11 11 10 10
0 1 6 4 9 13 14 13 17 16 10 6 4 4 4 9 9 9 11 13 14 18 18 15 13 11 16 18 20 18 18 19 17 15 18 20 19 18 19 20 23 23 21 22 20 19 19 18 16 12 11 12 13 15 15 13 14 14 15 14 15 14 14 14 14 13 12 13 14 14 13 13 14 14 14 13 13 13 13 13 12 12 11 11 11 10
1 1 4 1 3 10 19 17 13 10 12 9 1 2 4 13 16 17 18 20 20 14 13 10 13 16 18 19 20 21 21 19 17 18 17 18 19 18 17 21 23 21 20 19 19 20 19 17 14 10 13 14 14 15 13 10 11 14 15 14 14 14 14 14 14 13 14 14 14 14 14 14 14 14 13 13 13 13 13 13 14 13 13 11 11 11
3 1 4 2 2 10 8 6 12 11 9 1 4 1 3 6 10 18 23 21 19 16 9 12 16 18 19 17 18 21 19 19 19 20 18 18 18 19 25 26 21 16 22 20 21 21 20 18 16 14 15 15 16 16 12 9 12 15 15 13 14 14 14 13 14 14 14 14 14 14 14 14 13 14 14 14 13 13 14 14 13 14 12 11 12 12
3 5 4 2 3 5 8 5 8 11 11 5 3 10 14 11 11 17 18 12 13 5 11 15 19 20 20 19 19 17 18 20 18 14 15 15 20 24 22 20 22 21 21 20 20 21 21 19 16 17 17 16 17 15 10 13 14 14 17 15 13 12 12 14 14 14 14 15 14 14 14 14 14 14 14 14 14 13 14 13 13 13 12 12 11 10
3 0 2 5 1 4 7 9 12 14 14 4 7 8 11 18 19 19 22 18 9 1 15 18 22 20 20 20 23 22 21 20 14 10 10 18 23 17 17 19 19 19 19 21 20 20 18 15 16 18 18 17 17 12 12 15 15 17 15 14 13 15 15 15 14 15 16 15 15 14 14 14 14 13 14 14 14 14 12 13 14 13 11 11 11 11
1 1 2 4 5 3 6 14 11 10 11 1 7 11 12 15 16 21 16 12 2 12 16 20 22 25 28 26 23 24 22 18 14 11 15 22 20 25 20 19 18 19 21 21 21 16 15 16 17 17 16 18 15 13 16 16 17 15 14 14 15 15 15 14 15 15 15 15 15 15 14 13 14 14 13 13 13 13 13 12 11 11 10 11 12 11
3 1 3 5 5 6 5 4 10 9 7 7 12 15 18 14 19 18 12 16 8 15 19 19 23 23 22 22 28 25 19 15 16 19 22 25 24 21 21 20 20 19 22 19 16 19 18 17 19 16 16 17 13 18 18 19 17 14 14 15 15 14 14 15 15 15 15 15 15 14 13 13 13 12 12 12 13 12 13 12 12 12 10 10 10 11
7 1 3 3 5 3 2 3 8 5 8 7 15 20 20 16 15 11 16 14 13 21 18 18 22 25 28 29 25 19 17 21 22 20 25 23 21 21 20 23 24 23 18 19 18 18 20 19 15 17 18 15 18 18 18 16 15 15 15 15 14 15 15 16 16 16 15 15 14 13 13 12 12 12 12 13 13 11 11 11 11 11 11 10 9 10
2 6 4 4 5 11 7 6 5 7 7 10 14 21 17 17 12 11 9 17 23 20 17 18 26 26 23 24 21 20 19 18 19 21 22 22 24 24 21 20 21 18 18 21 21 22 16 16 12 17 16 15 18 17 16 15 15 15 15 15 14 16 16 16 15 15 14 14 14 14 14 12 11 13 13 11 11 11 10 9 11 11 10 10 9 9
2 1 2 3 6 5 5 8 8 9 3 17 16 21 18 18 15 18 14 16 18 20 20 22 25 25 26 25 22 20 22 21 21 23 26 24 25 25 23 22 21 19 18 18 21 19 17 15 17 21 19 18 18 18 16 16 16 15 15 15 16 17 16 16 15 14 15 16 15 14 13 13 12 12 11 11 10 11 10 10 10 10 9 8 9 10
4 3 6 8 4 5 2 7 10 12 4 21 24 15 8 13 12 13 17 15 16 19 25 25 23 24 25 25 24 23 22 23 25 26 24 23 24 25 24 25 20 22 23 23 20 20 21 19 19 19 19 17 17 16 16 17 17 15 15 16 18 17 15 15 15 16 16 15 14 13 13 12 13 12 10 10 10 10 10 8 8 9 8 9 9 10
2 4 4 2 0 10 8 4 3 10 14 17 18 14 13 9 12 15 15 15 14 18 23 23 22 23 24 23 23 23 23 25 25 24 24 23 23 22 23 22 20 22 22 20 19 20 21 18 18 18 18 17 17 17 15 16 16 16 16 18 16 14 15 15 16 15 14 13 13 13 12 12 12 12 11 11 11 10 10 10 9 8 8 8 7 8
2 1 3 9 2 2 7 9 11 7 10 11 12 9 11 13 14 15 14 14 18 21 20 19 22 24 24 23 23 23 23 22 23 22 21 23 22 22 23 23 22 22 22 23 20 22 18 19 19 19 18 18 19 17 15 15 15 18 18 16 14 14 15 15 15 14 13 13 13 13 12 12 12 11 10 10 10 10 9 10 9 9 7 7 7 7
2 1 2 1 5 7 9 10 8 11 12 16 9 6 12 15 15 12 14 18 17 17 18 19 21 21 21 21 21 19 20 22 23 22 22 22 21 22 22 21 21 19 21 19 20 22 20 19 18 19 19 19 19 17 15 16 15 17 16 15 14 14 14 14 15 14 14 13 12 13 12 12 11 10 10 11 8 8 7 8 8 8 8 7 7 6
3 1 2 3 6 11 6 6 13 15 19 16 12 14 13 13 13 11 14 13 14 14 17 18 19 20 20 19 18 19 22 22 21 20 20 21 20 21 22 21 20 21 20 21 21 20 18 17 18 20 21 20 19 17 16 15 13 13 14 14 15 15 14 14 14 14 13 13 13 12 11 11 10 11 10 9 9 7 7 7 7 8 8 7 7 8
6 3 4 7 12 3 10 11 12 12 9 7 11 15 16 17 14 14 14 13 12 13 14 17 19 17 18 19 20 19 20 21 21 22 21 19 19 19 20 20 21 21 19 19 20 20 18 18 18 20 20 18 18 17 16 14 13 13 14 14 14 14 15 15 14 14 13 14 11 10 10 10 12 12 11 10 8 9 9 9 8 8 8 8 8 8
5 4 5 8 8 9 11 9 14 21 12 10 15 12 14 14 15 17 16 15 16 18 19 18 15 16 17 17 19 18 20 20 20 21 21 18 18 18 19 20 21 19 19 20 18 19 18 18 18 20 20 18 15 14 13 13 13 13 15 14 14 14 15 15 16 14 13 12 11 11 10 10 9 9 10 11 10 8 7 8 8 8 9 8 6 6
5 6 6 8 11 11 11 16 16 16 17 17 15 15 15 12 14 14 15 16 19 20 21 21 19 17 16 16 18 18 20 18 20 20 20 18 18 20 20 20 19 19 19 18 17 19 20 19 19 18 18 15 14 13 14 13 13 14 14 14 14 15 16 16 14 13 12 11 11 11 11 10 10 9 9 9 9 11 11 9 14 11 8 9 15 20
5 6 6 6 5 10 13 12 10 10 13 13 15 15 14 11 13 15 16 18 18 18 18 18 19 19 19 19 17 18 19 18 20 19 19 17 17 18 19 20 19 18 19 19 19 20 20 19 19 17 16 15 14 14 14 14 14 13 14 15 15 16 16 16 13 12 11 11 10 12 12 10 10 10 9 8 9 8 9 12 9 9 13 14 16 17
Wind_Direction
67 68 64 54 296 313 300 213 179 240 187 265 302 213 269 279 271 263 280 282 346 330 250 296 304 292 291 346 329 124 101 93 96 89 85 79 74 68 60 51 33 35 25 311 300 349 14 14 6 5 359 350 346 341 327 331 336 338 331 332 330 325 327 336 335 333 326 322 316 311 305 294 285 285 289 290 283 283 276 267 265 264 267 281 282 275
66 59 2 295 270 259 293 297 67 52 87 36 330 17 320 320 311 304 283 318 327 37 299 315 336 295 349 10 42 94 90 93 102 95 85 87 85 78 63 46 26 347 321 356 359 354 7 359 357 357 352 344 343 338 340 338 337 335 330 329 325 329 333 333 333 321 321 316 313 304 295 290 295 299 299 293 290 281 276 275 273 269 274 278 274 273
43 74 308 289 269 73 55 51 61 65 341 11 15 283 4 309 288 274 262 292 13 344 290 326 7 319 33 27 37 67 82 85 81 91 98 92 79 62 53 36 20 15 10 17 16 8 7 350 348 351 344 339 335 328 325 322 329 328 323 316 314 312 320 321 320 323 315 313 313 311 305 308 297 273 268 274 278 285 286 283 280 278 275 275 275 266
28 304 305 321 45 47 6 23 34 6 15 14 341 23 307 277 19 325 293 169 340 232 287 321 310 41 68 52 56 55 81 86 86 89 86 80 75 59 50 35 15 15 16 15 11 3 356 352 344 344 341 339 340 339 335 332 329 324 321 313 312 313 314 313 309 311 303 300 301 299 291 290 282 281 292 300 299 293 288 286 281 287 285 277 273 271
173 251 176 72 48 69 11 344 55 40 335 306 213 283 316 322 307 211 291 313 309 277 221 294 337 43 43 85 71 63 79 80 70 78 70 71 79 83 55 30 22 21 13 10 3 356 352 349 347 342 339 342 349 340 329 319 315 313 305 301 304 297 300 299 305 306 304 309 312 310 307 302 302 297 293 304 294 280 277 277 284 280 281 285 284 281
334 273 218 35 25 32 53 5 345 116 333 327 252 256 286 289 302 301 292 326 343 333 322 25 354 323 82 97 115 114 75 71 59 71 71 60 45 34 26 21 13 25 19 10 1 349 346 342 341 340 342 349 343 333 326 311 302 298 293 294 299 312 309 307 305 304 304 304 304 311 313 315 318 315 317 315 312 313 310 302 298 303 296 291 288 286
196 333 76 95 68 10 36 40 236 133 290 2 283 189 281 281 285 298 299 14 312 346 300 57 126 262 137 130 156 121 98 96 70 71 62 42 37 31 24 14 10 12 3 1 356 345 343 344 343 342 346 343 336 327 319 309 301 299 294 306 322 314 305 298 297 301 303 300 301 290 288 295 304 306 306 302 301 297 293 290 296 292 293 288 288 289
351 335 23 35 48 38 20 2 281 195 290 291 251 351 304 313 311 299 300 217 234 259 292 13 153 212 273 73 145 152 105 97 75 59 47 34 27 32 20 13 14 7 1 354 347 342 343 345 347 343 340 336 329 322 315 304 302 302 302 305 306 300 295 287 285 289 294 301 299 301 299 299 299 301 300 307 307 302 298 296 290 291 288 284 282 286
84 330 16 348 42 37 352 271 289 187 225 266 282 340 300 289 301 289 295 280 233 197 277 343 314 317 326 46 172 175 122 81 82 45 23 20 24 20 14 11 7 3 355 351 345 342 346 349 346 341 337 331 326 323 316 309 310 301 279 298 301 298 290 286 283 286 288 289 282 274 290 295 288 291 294 298 297 297 297 294 296 298 295 293 287 283
311 135 260 134 95 318 260 290 228 207 332 282 282 271 252 294 268 273 265 254 310 117 276 309 312 68 299 132 196 223 105 112 56 20 12 18 18 15 5 1 358 355 353 348 345 344 347 345 344 338 332 330 329 326 321 315 313 291 302 310 306 297 295 290 288 292 283 273 265 272 266 269 288 291 295 302 306 310 311 308 313 313 310 305 299 296
269 286 166 107 215 227 256 271 204 215 236 283 352 342 318 299 265 312 104 16 52 273 250 199 224 90 285 181 197 182 52 91 13 358 14 7 9 8 3 358 356 353 353 345 341 341 338 337 338 339 339 337 334 333 329 323 318 306 315 310 307 304 306 303 299 294 278 266 257 256 251 261 277 287 290 302 305 310 319 319 316 316 318 320 313 310
335 352 93 268 304 290 155 308 252 245 292 32 1 326 329 322 305 43 334 32 14 286 253 209 3 353 302 268 138 116 163 114 85 36 5 4 10 357 351 350 350 349 342 338 341 338 337 344 348 346 343 341 339 342 345 345 340 334 329 327 324 320 313 307 302 293 290 286 276 254 246 249 253 265 277 286 293 306 314 317 315 318 315 311 307 307
351 97 285 309 235 51 337 310 294 347 0 22 357 8 8 317 5 318 14 337 310 279 272 214 23 349 239 206 132 148 132 115 89 79 30 6 353 350 342 355 344 346 344 341 345 350 349 347 343 340 339 341 352 351 343 337 335 332 329 326 323 321 320 312 309 306 302 301 285 265 251 239 239 239 254 265 276 290 299 307 311 309 306 313 317 321
283 288 350 314 8 52 24 4 330 352 350 10 10 9 30 340 329 293 298 222 278 271 204 324 360 263 242 108 122 147 139 99 107 80 76 8 9 351 349 355 344 339 351 356 351 342 338 337 333 332 340 350 350 344 339 337 336 335 331 330 327 324 327 325 319 314 314 307 296 277 266 255 238 240 245 253 265 275 282 293 293 297 300 306 309 311
347 350 309 20 340 340 360 249 271 251 314 278 192 117 197 243 292 299 181 304 293 291 303 310 354 231 271 187 147 139 137 90 90 94 51 23 21 326 299 326 347 359 357 349 342 335 333 330 325 330 347 346 342 339 335 334 333 333 331 331 329 328 331 328 322 317 314 309 299 284 266 251 243 239 245 250 257 268 280 284 286 283 291 294 298 300
240 235 262 176 244 293 341 294 211 334 304 248 185 102 40 292 139 255 251 231 284 291 309 331 222 215 217 145 146 134 122 111 78 75 241 8 2 357 356 359 356 351 349 343 336 333 330 324 321 342 345 338 335 332 329 328 330 330 329 327 325 325 325 323 321 318 314 311 306 293 274 256 259 265 271 269 269 273 274 279 275 280 284 290 295 295
331 280 255 325 47 121 342 291 300 108 9 283 21 291 247 198 154 271 295 226 308 308 259 166 307 344 96 135 178 157 87 26 10 8 7 359 352 346 357 357 352 345 343 341 336 333 327 320 325 340 335 332 328 325 323 324 324 325 326 326 325 324 321 319 316 314 315 314 315 306 286 277 285 290 287 289 293 290 281 275 282 295 298 298 295 291
129 282 300 233 317 288 248 249 257 309 203 61 339 275 283 152 158 134 273 314 185 260 284 146 237 279 50 283 100 14 11 11 355 337 349 336 349 3 351 346 342 334 333 332 326 325 319 311 317 327 325 321 319 317 317 317 321 323 323 324 328 325 318 314 309 309 312 317 317 305 294 294 298 300 301 300 295 290 304 316 312 304 296 290 286 285
108 306 302 266 252 277 330 39 322 308 112 249 258 223 30 322 338 304 41 307 305 271 283 275 251 244 211 259 19 2 11 344 328 331 336 351 2 348 339 328 328 323 325 324 320 316 313 304 309 320 318 314 311 310 308 310 314 318 322 329 328 320 314 310 307 307 311 315 315 309 297 298 301 298 299 296 296 325 321 311 306 301 295 292 289 286
345 251 299 312 46 310 322 51 308 290 327 337 9 350 345 39 286 315 238 276 315 294 313 294 302 279 198 202 25 3 335 295 303 311 333 350 341 334 325 324 320 325 320 315 312 309 303 299 310 315 314 313 312 311 308 310 314 321 329 328 322 316 311 308 307 310 312 314 314 313 311 305 302 303 299 304 322 314 310 306 303 300 297 291 285 278
287 167 272 270 331 3 344 320 252 266 294 331 5 318 341 296 225 223 345 178 200 239 248 296 301 161 171 117 93 259 233 221 263 303 330 330 324 319 314 313 317 315 314 309 308 306 300 301 309 309 308 305 303 304 308 312 319 325 327 323 322 316 308 302 307 310 311 313 311 314 312 305 300 303 322 318 311 308 305 304 299 292 287 285 279 277
29 354 240 301 331 301 274 256 225 270 271 318 336 296 302 319 316 333 292 83 56 305 283 284 275 291 109 168 158 313 199 215 291 339 322 324 318 315 313 313 314 311 310 309 303 300 298 301 305 305 303 303 303 307 314 319 323 325 323 323 320 312 305 305 311 310 307 314 312 305 301 311 330 326 312 309 308 308 307 300 293 289 283 279 278 276
161 220 233 288 253 285 279 278 191 189 214 207 175 271 203 223 348 309 296 298 306 267 202 248 278 288 134 141 103 56 317 8 357 337 324 320 315 312 312 311 308 306 308 309 305 297 295 300 302 303 304 305 307 312 318 323 325 324 324 327 328 320 314 314 314 315 319 310 307 316 319 316 315 315 313 315 318 311 303 293 287 283 279 280 282 277
95 68 337 298 302 251 268 354 14 43 13 332 317 336 5 296 245 233 270 294 290 299 303 286 261 293 182 162 141 150 105 10 334 324 308 306 303 303 307 309 311 314 312 307 299 292 292 300 301 302 307 311 313 317 321 325 326 324 327 331 327 317 316 322 321 314 307 312 316 313 315 314 313 328 340 329 324 315 304 291 289 295 300 302 303 301
13 285 64 308 329 321 327 329 304 221 1 316 299 295 197 307 308 281 284 74 234 250 274 300 294 302 110 225 336 339 21 339 321 313 309 308 310 311 310 310 310 311 310 307 304 301 301 304 307 308 310 313 317 319 327 332 330 329 329 331 327 325 322 320 316 314 320 323 318 314 311 323 339 333 323 318 313 308 304 314 318 309 301 297 295 297
264 267 62 342 327 330 331 336 335 330 330 316 295 303 291 262 288 335 313 314 257 245 223 278 288 294 319 333 326 331 343 330 321 315 309 304 307 313 314 313 311 311 309 308 305 307 310 312 310 312 311 315 321 329 336 332 331 332 329 328 327 319 320 317 314 310 313 313 307 315 329 329 323 318 314 313 311 305 303 303 301 301 298 291 292 302
188 275 179 193 195 252 271 275 281 303 311 309 302 314 308 298 283 242 294 312 291 307 309 256 267 311 317 321 329 336 342 334 325 322 320 316 315 312 308 307 308 310 310 310 306 307 312 316 315 314 314 316 330 345 336 331 330 335 336 327 324 323 318 319 315 316 317 316 324 328 325 326 322 315 311 310 307 301 298 296 296 293 288 308 318 313
63 327 253 228 229 242 258 277 287 296 285 287 296 299 309 314 304 234 190 281 343 343 297 318 326 316 310 318 328 339 332 320 315 318 318 316 316 314 309 305 308 307 308 308 310 315 317 319 320 320 319 330 347 335 328 333 332 330 330 332 328 321 321 317 317 317 315 315 313 317 323 320 315 313 310 305 299 295 291 290 288 292 317 324 318 315
135 214 271 95 263 249 268 281 289 290 264 274 289 298 303 304 314 234 265 302 344 315 299 310 311 307 308 316 337 337 328 316 316 317 319 315 310 310 309 309 310 311 311 312 315 317 320 324 325 321 327 342 335 329 322 319 327 331 330 330 324 323 321 320 319 318 317 319 322 322 318 311 303 303 301 302 306 309 308 304 302 313 318 318 312 309
47 243 250 206 287 291 289 281 284 290 298 306 300 307 310 312 309 350 302 290 289 279 286 297 303 301 306 326 338 327 322 319 317 316 315 318 316 312 310 311 314 316 315 313 319 320 323 324 323 324 334 341 331 327 328 326 333 339 337 332 328 324 323 325 320 319 320 320 318 311 307 303 299 297 302 309 315 313 310 308 310 313 314 309 306 301
90 288 3 336 316 301 300 286 280 296 306 308 308 309 345 31 10 345 330 321 303 292 299 297 298 302 330 341 319 316 322 320 317 322 321 317 314 313 313 316 320 317 317 321 319 325 324 324 326 333 336 332 335 335 336 336 333 335 336 331 327 325 327 323 320 319 320 317 310 308 306 304 309 313 313 311 307 305 303 306 309 309 304 300 296 292
53 281 31 55 336 306 311 315 321 323 312 289 302 356 359 44 13 266 306 309 320 313 310 311 312 314 325 322 317 322 324 327 324 322 321 319 315 312 316 320 322 322 322 322 324 326 330 332 333 337 343 339 338 339 338 339 340 337 333 331 327 327 324 323 322 319 315 309 307 309 312 316 317 314 312 309 306 305 306 308 310 305 299 296 291 289
271 329 337 337 329 291 306 336 323 304 302 340 334 286 335 338 320 311 308 315 308 310 312 316 316 328 322 328 323 324 327 323 320 319 317 312 309 316 324 324 322 323 325 330 332 334 336 337 336 342 346 342 342 340 340 341 340 338 331 325 325 323 324 321 319 317 313 313 314 317 321 319 316 313 310 308 308 308 309 308 303 300 297 292 288 281
41 58 289 67 271 289 314 317 313 334 346 341 129 196 5 346 334 330 327 325 322 321 314 335 323 322 322 323 325 324 326 323 318 314 310 310 320 325 323 323 325 327 333 339 340 340 340 341 343 345 345 345 342 339 335 344 343 335 329 325 324 323 322 319 320 319 319 320 322 324 320 316 314 312 310 311 311 310 309 306 302 299 298 294 293 293
331 2 274 161 293 292 288 328 336 342 321 302 104 220 233 257 312 323 322 327 318 323 334 324 319 322 323 322 319 316 313 310 310 310 310 317 326 328 331 332 330 337 346 346 345 346 346 344 339 341 347 346 342 335 339 345 338 334 332 327 323 322 322 322 322 323 324 325 324 320 319 317 316 315 315 313 311 309 306 303 301 300 298 294 294 293
288 333 281 299 231 307 336 351 346 297 308 123 246 11 348 321 317 318 310 315 331 353 341 326 326 324 324 319 313 310 308 307 305 304 310 323 339 336 336 337 342 348 349 352 350 347 343 335 342 353 347 341 339 334 354 349 340 331 330 327 324 325 324 324 324 326 328 326 323 322 321 320 318 315 313 312 309 308 305 302 301 300 299 294 290 285
261 305 67 299 124 309 321 302 280 291 301 32 8 339 348 351 348 345 326 331 8 77 343 333 326 323 319 317 321 316 315 312 303 300 328 338 338 339 339 343 352 353 357 351 347 337 331 348 0 346 340 339 333 349 359 346 339 333 330 330 330 328 329 327 328 330 329 326 325 324 322 320 317 314 311 310 310 305 305 307 303 300 297 295 293 291
117 321 266 28 292 140 323 320 314 334 332 273 345 341 347 351 343 326 310 306 98 349 346 330 324 325 325 323 321 323 321 316 317 322 342 343 346 344 351 355 358 3 355 344 334 346 2 354 343 344 338 334 342 8 350 345 338 334 334 334 332 331 329 331 332 330 329 327 327 325 321 317 316 312 309 310 306 308 307 301 298 296 297 294 295 294
356 96 141 154 263 360 343 293 314 302 314 17 331 345 351 350 339 311 314 319 351 347 336 331 323 325 326 327 330 330 328 327 327 332 342 348 350 357 355 358 2 357 346 343 356 357 347 349 343 337 339 337 14 355 352 344 340 336 337 336 335 332 333 335 332 331 330 329 326 322 317 316 313 311 311 310 310 305 302 304 302 296 291 289 285 283
1 12 21 337 305 253 266 342 289 189 258 349 351 351 351 344 317 349 336 313 347 345 335 329 328 331 332 332 332 334 339 332 335 336 343 350 356 357 358 358 353 346 348 1 354 352 347 340 339 344 338 5 3 352 350 345 341 340 337 336 333 336 337 334 333 330 328 326 324 321 320 317 315 315 311 310 307 304 298 295 293 295 295 289 284 283
6 335 60 252 277 319 322 260 331 309 302 329 359 351 349 340 346 360 342 326 337 332 332 331 332 333 336 337 341 335 338 333 325 331 345 349 349 348 354 357 348 344 2 354 351 347 345 341 345 346 359 7 355 352 344 341 342 340 338 336 336 339 335 332 329 329 327 326 324 322 321 319 317 315 312 308 302 298 291 287 292 298 300 301 298 296
348 347 299 1 323 298 302 312 298 326 29 12 2 355 358 349 4 346 333 331 321 325 330 338 334 338 341 339 338 334 328 329 332 343 342 348 346 345 347 350 340 356 357 357 348 346 340 339 360 352 355 357 353 343 343 342 343 341 339 337 340 337 330 330 330 329 329 326 324 323 321 319 318 315 312 309 307 304 297 304 306 307 305 302 307 313
302 350 321 330 300 308 273 325 339 339 337 18 353 354 24 5 337 330 323 323 330 326 335 337 340 339 344 335 335 332 330 337 341 340 342 347 347 343 346 342 353 359 352 349 345 348 359 356 351 349 349 347 343 346 345 346 344 341 338 338 338 332 331 332 332 330 327 325 323 322 320 319 318 317 315 313 310 308 311 310 310 308 306 310 313 314
225 7 315 293 128 320 343 346 266 320 332 2 1 339 348 349 335 328 328 323 336 340 337 339 340 343 340 336 333 337 339 340 340 344 344 343 341 341 343 347 356 355 347 342 344 3 358 356 352 346 345 346 346 346 347 346 342 339 337 337 332 329 331 331 329 327 324 323 323 321 321 321 319 318 315 315 316 315 312 313 310 307 311 310 310 314
260 344 297 292 234 92 289 277 290 331 343 348 341 332 338 340 340 335 333 332 336 340 346 338 338 339 340 338 340 343 339 342 343 347 343 339 338 344 348 348 352 348 343 341 2 360 357 353 344 342 344 347 347 346 346 345 339 337 336 334 328 330 331 329 326 325 324 324 323 322 322 320 319 316 313 315 315 313 313 312 317 317 316 315 313 312
336 192 236 285 272 251 254 263 326 332 338 333 342 351 345 343 341 342 345 341 344 345 348 341 338 338 339 347 344 342 342 343 342 343 340 337 340 345 347 348 347 344 341 358 0 357 351 344 343 343 345 346 348 345 344 342 339 335 332 328 329 329 329 327 326 326 326 325 323 322 321 319 316 312 314 316 313 309 308 310 316 316 313 316 313 311
251 339 15 264 317 342 313 338 326 337 339 333 336 348 348 348 340 349 346 349 343 347 343 341 342 341 349 348 348 346 343 343 339 339 340 339 344 348 347 346 343 346 350 4 354 350 343 344 343 345 346 345 345 345 341 336 334 331 329 329 329 329 328 326 326 325 326 325 324 322 323 322 322 324 324 323 321 318 315 317 318 316 315 314 316 314
328 314 322 333 321 303 275 312 326 328 317 322 352 345 347 345 350 356 350 342 342 345 344 345 346 349 356 347 348 348 344 341 341 343 341 345 347 347 344 345 350 344 354 357 347 346 344 343 343 341 343 342 341 338 335 332 331 331 330 329 329 329 328 328 330 328 325 324 323 322 323 322 321 324 323 325 326 327 329 328 321 317 315 317 317 314
266 347 328 313 314 297 306 322 338 330 328 348 354 351 347 345 351 348 345 343 349 348 351 352 358 355 349 345 347 347 343 342 345 347 343 345 346 344 347 350 347 345 353 347 346 347 347 343 340 339 338 337 334 331 330 331 329 329 331 331 331 331 331 330 329 328 325 325 326 324 325 324 325 325 323 323 325 324 317 312 313 312 307 297 265 271
356 357 326 346 329 337 337 335 350 343 333 341 345 349 344 352 354 344 343 349 354 354 353 350 350 352 347 349 348 350 345 342 347 349 347 347 344 346 348 348 344 346 348 346 345 345 344 342 339 334 333 332 332 332 331 329 329 329 330 331 332 333 333 332 330 329 329 330 328 326 327 329 327 325 323 324 325 327 323 314 325 320 308 301 318 323
15 330 356 342 325 300 323 335 344 321 309 319 331 341 345 359 351 348 351 354 354 360 353 351 347 347 348 348 352 355 346 347 347 349 347 346 347 350 346 344 344 346 346 345 344 344 343 340 336 332 331 334 334 334 332 329 329 329 331 334 334 335 333 332 331 328 328 330 330 329 330 326 326 326 324 322 323 319 319 323 324 327 328 331 331 334